Time,TemperatureF,DewpointF,PressureIn,WindDirection,WindDirectionDegrees,WindSpeedMPH,WindSpeedGustMPH,Humidity,HourlyPrecipIn,Conditions,Clouds,dailyrainin,SoftwareType,DateUTC
2013-01-29 00:03:00,50.6,47.0,29.64,West,272,4.0,-999.0,87,-99.99,,,0.06,weatherlink.com 1.10,2013-01-29 00:03:00,
2013-01-29 00:18:00,50.7,47.0,29.64,West,271,0.0,-999.0,87,-99.99,,,0.06,weatherlink.com 1.10,2013-01-29 00:18:00,
2013-01-29 00:33:00,50.9,47.0,29.63,WNW,285,3.0,-999.0,87,-99.99,,,0.08,weatherlink.com 1.10,2013-01-29 00:33:00,
2013-01-29 00:48:00,51.2,48.0,29.62,West,267,13.0,-999.0,87,-99.99,,,0.09,weatherlink.com 1.10,2013-01-29 00:48:00,
2013-01-29 01:03:00,51.4,48.0,29.62,West,273,6.0,-999.0,87,-99.99,,,0.09,weatherlink.com 1.10,2013-01-29 01:03:00,
2013-01-29 01:18:00,51.7,48.0,29.62,West,261,7.0,-999.0,87,-99.99,,,0.11,weatherlink.com 1.10,2013-01-29 01:18:00,
2013-01-29 01:33:00,51.8,48.0,29.61,SW,235,18.0,-999.0,87,-99.99,,,0.13,weatherlink.com 1.10,2013-01-29 01:33:00,
2013-01-29 01:48:00,52.2,49.0,29.59,WSW,246,16.0,-999.0,88,-99.99,,,0.14,weatherlink.com 1.10,2013-01-29 01:48:00,
2013-01-29 02:03:00,52.3,49.0,29.60,WSW,248,11.0,-999.0,88,-99.99,,,0.14,weatherlink.com 1.10,2013-01-29 02:03:00,
2013-01-29 02:18:00,52.4,49.0,29.60,SW,236,22.0,-999.0,88,-99.99,,,0.15,weatherlink.com 1.10,2013-01-29 02:18:00,
2013-01-29 02:33:00,52.6,49.0,29.60,WSW,242,6.0,-999.0,88,-99.99,,,0.16,weatherlink.com 1.10,2013-01-29 02:33:00,
2013-01-29 02:48:00,52.7,49.0,29.59,WSW,250,10.0,-999.0,88,-99.99,,,0.17,weatherlink.com 1.10,2013-01-29 02:48:00,
2013-01-29 03:03:00,52.9,50.0,29.60,WSW,242,18.0,-999.0,88,-99.99,,,0.17,weatherlink.com 1.10,2013-01-29 03:03:00,
2013-01-29 03:18:00,52.9,50.0,29.60,WSW,250,16.0,-999.0,88,-99.99,,,0.17,weatherlink.com 1.10,2013-01-29 03:18:00,
2013-01-29 03:33:00,52.9,50.0,29.59,SW,224,10.0,-999.0,88,-99.99,,,0.18,weatherlink.com 1.10,2013-01-29 03:33:00,
2013-01-29 03:48:00,52.9,50.0,29.59,West,260,16.0,-999.0,88,-99.99,,,0.18,weatherlink.com 1.10,2013-01-29 03:48:00,
2013-01-29 04:03:00,52.9,50.0,29.60,West,265,16.0,-999.0,88,-99.99,,,0.19,weatherlink.com 1.10,2013-01-29 04:03:00,
2013-01-29 04:18:00,52.9,50.0,29.59,WSW,257,15.0,-999.0,88,-99.99,,,0.19,weatherlink.com 1.10,2013-01-29 04:18:00,
2013-01-29 04:33:00,53.0,50.0,29.59,WSW,246,13.0,-999.0,88,-99.99,,,0.19,weatherlink.com 1.10,2013-01-29 04:33:00,
2013-01-29 04:48:00,53.0,50.0,29.60,West,273,24.0,-999.0,88,-99.99,,,0.19,weatherlink.com 1.10,2013-01-29 04:48:00,
2013-01-29 05:03:00,53.0,50.0,29.60,West,265,10.0,-999.0,88,-99.99,,,0.19,weatherlink.com 1.10,2013-01-29 05:03:00,
2013-01-29 05:18:00,53.0,50.0,29.59,WNW,284,10.0,-999.0,88,-99.99,,,0.19,weatherlink.com 1.10,2013-01-29 05:18:00,
2013-01-29 05:33:00,53.0,50.0,29.60,West,271,4.0,-999.0,88,-99.99,,,0.19,weatherlink.com 1.10,2013-01-29 05:33:00,
2013-01-29 05:48:00,53.0,50.0,29.59,SW,235,14.0,-999.0,88,-99.99,,,0.19,weatherlink.com 1.10,2013-01-29 05:48:00,
2013-01-29 06:03:00,53.0,50.0,29.59,WSW,242,17.0,-999.0,88,-99.99,,,0.19,weatherlink.com 1.10,2013-01-29 06:03:00,
2013-01-29 06:18:00,53.0,50.0,29.59,West,264,6.0,-999.0,88,-99.99,,,0.19,weatherlink.com 1.10,2013-01-29 06:18:00,
2013-01-29 06:33:00,53.1,50.0,29.59,WSW,257,9.0,-999.0,88,-99.99,,,0.19,weatherlink.com 1.10,2013-01-29 06:33:00,
2013-01-29 06:48:00,53.1,50.0,29.59,West,261,10.0,-999.0,88,-99.99,,,0.19,weatherlink.com 1.10,2013-01-29 06:48:00,
2013-01-29 07:03:00,53.1,50.0,29.59,WSW,253,11.0,-999.0,88,-99.99,,,0.19,weatherlink.com 1.10,2013-01-29 07:03:00,
2013-01-29 07:18:00,53.1,50.0,29.59,WSW,244,16.0,-999.0,89,-99.99,,,0.20,weatherlink.com 1.10,2013-01-29 07:18:00,
2013-01-29 07:33:00,53.3,50.0,29.60,SW,236,19.0,-999.0,89,-99.99,,,0.21,weatherlink.com 1.10,2013-01-29 07:33:00,
2013-01-29 07:48:00,53.3,50.0,29.60,SW,227,20.0,-999.0,89,-99.99,,,0.21,weatherlink.com 1.10,2013-01-29 07:48:00,
2013-01-29 08:03:00,53.5,50.0,29.60,SW,233,15.0,-999.0,88,-99.99,,,0.21,weatherlink.com 1.10,2013-01-29 08:03:00,
2013-01-29 08:18:00,53.5,50.0,29.61,WSW,250,11.0,-999.0,88,-99.99,,,0.22,weatherlink.com 1.10,2013-01-29 08:18:00,
2013-01-29 08:33:00,53.6,50.0,29.61,West,260,17.0,-999.0,88,-99.99,,,0.22,weatherlink.com 1.10,2013-01-29 08:33:00,
2013-01-29 08:48:00,53.6,50.0,29.61,WSW,258,19.0,-999.0,88,-99.99,,,0.22,weatherlink.com 1.10,2013-01-29 08:48:00,
2013-01-29 09:03:00,53.8,51.0,29.62,WSW,237,16.0,-999.0,89,-99.99,,,0.22,weatherlink.com 1.10,2013-01-29 09:03:00,
2013-01-29 09:18:00,53.7,50.0,29.61,SW,232,21.0,-999.0,88,-99.99,,,0.22,weatherlink.com 1.10,2013-01-29 09:18:00,
2013-01-29 09:33:00,53.5,50.0,29.62,WSW,238,15.0,-999.0,88,-99.99,,,0.22,weatherlink.com 1.10,2013-01-29 09:33:00,
2013-01-29 09:48:00,53.5,50.0,29.62,SW,223,13.0,-999.0,88,-99.99,,,0.23,weatherlink.com 1.10,2013-01-29 09:48:00,
2013-01-29 10:02:00,53.5,50.0,29.61,West,264,14.0,-999.0,88,-99.99,,,0.24,weatherlink.com 1.10,2013-01-29 10:02:00,
2013-01-29 10:18:00,53.6,50.0,29.61,SW,234,24.0,-999.0,88,-99.99,,,0.24,weatherlink.com 1.10,2013-01-29 10:18:00,
2013-01-29 10:33:00,53.7,50.0,29.62,WSW,241,12.0,-999.0,88,-99.99,,,0.24,weatherlink.com 1.10,2013-01-29 10:33:00,
2013-01-29 10:48:00,53.7,50.0,29.62,WSW,245,22.0,-999.0,88,-99.99,,,0.24,weatherlink.com 1.10,2013-01-29 10:48:00,
2013-01-29 11:03:00,53.9,51.0,29.63,WSW,240,19.0,-999.0,88,-99.99,,,0.24,weatherlink.com 1.10,2013-01-29 11:03:00,
2013-01-29 11:18:00,53.9,51.0,29.63,WSW,246,13.0,-999.0,88,-99.99,,,0.24,weatherlink.com 1.10,2013-01-29 11:18:00,
2013-01-29 11:33:00,54.0,51.0,29.63,WSW,242,23.0,-999.0,88,-99.99,,,0.24,weatherlink.com 1.10,2013-01-29 11:33:00,
2013-01-29 11:48:00,54.1,51.0,29.64,SW,225,22.0,-999.0,88,-99.99,,,0.24,weatherlink.com 1.10,2013-01-29 11:48:00,
2013-01-29 12:03:00,54.1,51.0,29.63,WSW,248,10.0,-999.0,88,-99.99,,,0.24,weatherlink.com 1.10,2013-01-29 12:03:00,
2013-01-29 12:18:00,54.0,51.0,29.62,WSW,238,18.0,-999.0,88,-99.99,,,0.24,weatherlink.com 1.10,2013-01-29 12:18:00,
2013-01-29 12:33:00,54.0,51.0,29.62,WSW,244,28.0,-999.0,88,-99.99,,,0.24,weatherlink.com 1.10,2013-01-29 12:33:00,
2013-01-29 12:48:00,53.9,51.0,29.62,SW,236,17.0,-999.0,88,-99.99,,,0.24,weatherlink.com 1.10,2013-01-29 12:48:00,
2013-01-29 13:03:00,54.0,51.0,29.62,WSW,244,21.0,-999.0,88,-99.99,,,0.24,weatherlink.com 1.10,2013-01-29 13:03:00,
2013-01-29 13:18:00,54.0,51.0,29.61,WSW,248,15.0,-999.0,88,-99.99,,,0.24,weatherlink.com 1.10,2013-01-29 13:18:00,
2013-01-29 13:33:00,54.0,50.0,29.61,WSW,242,30.0,-999.0,87,-99.99,,,0.24,weatherlink.com 1.10,2013-01-29 13:33:00,
2013-01-29 13:48:00,54.0,50.0,29.60,SW,234,13.0,-999.0,87,-99.99,,,0.24,weatherlink.com 1.10,2013-01-29 13:48:00,
2013-01-29 14:03:00,54.0,50.0,29.60,WSW,248,15.0,-999.0,87,-99.99,,,0.24,weatherlink.com 1.10,2013-01-29 14:03:00,
2013-01-29 14:18:00,54.1,50.0,29.60,SSW,207,28.0,-999.0,87,-99.99,,,0.24,weatherlink.com 1.10,2013-01-29 14:18:00,
2013-01-29 14:33:00,54.0,50.0,29.60,SW,236,18.0,-999.0,87,-99.99,,,0.24,weatherlink.com 1.10,2013-01-29 14:33:00,
2013-01-29 14:48:00,54.0,50.0,29.60,SW,221,19.0,-999.0,87,-99.99,,,0.25,weatherlink.com 1.10,2013-01-29 14:48:00,
2013-01-29 15:03:00,54.2,51.0,29.60,SW,233,23.0,-999.0,87,-99.99,,,0.25,weatherlink.com 1.10,2013-01-29 15:03:00,
2013-01-29 15:18:00,54.1,50.0,29.60,WSW,255,16.0,-999.0,87,-99.99,,,0.25,weatherlink.com 1.10,2013-01-29 15:18:00,
2013-01-29 15:33:00,54.3,51.0,29.60,SW,225,17.0,-999.0,87,-99.99,,,0.25,weatherlink.com 1.10,2013-01-29 15:33:00,
2013-01-29 15:48:00,54.3,50.0,29.59,SW,224,28.0,-999.0,86,-99.99,,,0.25,weatherlink.com 1.10,2013-01-29 15:48:00,
2013-01-29 16:03:00,54.2,50.0,29.58,SW,221,23.0,-999.0,86,-99.99,,,0.25,weatherlink.com 1.10,2013-01-29 16:03:00,
2013-01-29 16:18:00,54.2,50.0,29.59,WSW,254,22.0,-999.0,86,-99.99,,,0.25,weatherlink.com 1.10,2013-01-29 16:18:00,
2013-01-29 16:33:00,54.2,50.0,29.58,SSW,209,22.0,-999.0,86,-99.99,,,0.25,weatherlink.com 1.10,2013-01-29 16:33:00,
2013-01-29 16:48:00,54.1,50.0,29.59,WSW,238,28.0,-999.0,86,-99.99,,,0.25,weatherlink.com 1.10,2013-01-29 16:48:00,
2013-01-29 17:03:00,53.9,50.0,29.58,SSW,212,21.0,-999.0,86,-99.99,,,0.26,weatherlink.com 1.10,2013-01-29 17:03:00,
2013-01-29 17:18:00,53.9,50.0,29.58,SW,233,5.0,-999.0,86,-99.99,,,0.27,weatherlink.com 1.10,2013-01-29 17:18:00,
2013-01-29 17:33:00,53.8,50.0,29.58,WSW,237,23.0,-999.0,86,-99.99,,,0.28,weatherlink.com 1.10,2013-01-29 17:33:00,
2013-01-29 17:48:00,53.7,50.0,29.58,SW,234,25.0,-999.0,86,-99.99,,,0.28,weatherlink.com 1.10,2013-01-29 17:48:00,
2013-01-29 18:18:00,53.7,50.0,29.58,WSW,238,27.0,-999.0,87,-99.99,,,0.29,weatherlink.com 1.10,2013-01-29 18:18:00,
2013-01-29 18:33:00,53.7,50.0,29.58,WSW,246,21.0,-999.0,87,-99.99,,,0.30,weatherlink.com 1.10,2013-01-29 18:33:00,
2013-01-29 18:48:00,53.7,50.0,29.57,WSW,241,20.0,-999.0,87,-99.99,,,0.31,weatherlink.com 1.10,2013-01-29 18:48:00,
2013-01-29 19:03:00,53.7,50.0,29.57,SW,236,12.0,-999.0,87,-99.99,,,0.00,weatherlink.com 1.10,2013-01-29 19:03:00,
2013-01-29 19:18:00,53.6,50.0,29.57,WSW,248,18.0,-999.0,87,-99.99,,,0.02,weatherlink.com 1.10,2013-01-29 19:18:00,
2013-01-29 19:33:00,53.6,50.0,29.57,WSW,240,22.0,-999.0,87,-99.99,,,0.02,weatherlink.com 1.10,2013-01-29 19:33:00,
2013-01-29 19:48:00,53.5,50.0,29.57,SW,225,19.0,-999.0,87,-99.99,,,0.02,weatherlink.com 1.10,2013-01-29 19:48:00,
2013-01-29 20:03:00,53.5,50.0,29.56,SW,228,11.0,-999.0,87,-99.99,,,0.03,weatherlink.com 1.10,2013-01-29 20:03:00,
2013-01-29 20:18:00,53.5,50.0,29.56,WSW,243,16.0,-999.0,87,-99.99,,,0.04,weatherlink.com 1.10,2013-01-29 20:18:00,
2013-01-29 20:33:00,53.5,50.0,29.56,WSW,237,17.0,-999.0,87,-99.99,,,0.05,weatherlink.com 1.10,2013-01-29 20:33:00,
2013-01-29 20:48:00,53.5,50.0,29.55,WSW,241,24.0,-999.0,87,-99.99,,,0.05,weatherlink.com 1.10,2013-01-29 20:48:00,
2013-01-29 21:03:00,53.5,50.0,29.55,SSW,210,21.0,-999.0,87,-99.99,,,0.05,weatherlink.com 1.10,2013-01-29 21:03:00,
2013-01-29 21:18:00,53.4,50.0,29.55,WSW,258,16.0,-999.0,87,-99.99,,,0.06,weatherlink.com 1.10,2013-01-29 21:18:00,
2013-01-29 21:33:00,53.4,50.0,29.54,SSW,203,14.0,-999.0,87,-99.99,,,0.06,weatherlink.com 1.10,2013-01-29 21:33:00,
2013-01-29 21:48:00,53.4,50.0,29.55,West,259,16.0,-999.0,88,-99.99,,,0.07,weatherlink.com 1.10,2013-01-29 21:48:00,
2013-01-29 22:03:00,53.4,50.0,29.54,WSW,238,13.0,-999.0,88,-99.99,,,0.08,weatherlink.com 1.10,2013-01-29 22:03:00,
2013-01-29 22:19:00,53.4,50.0,29.54,SSW,200,19.0,-999.0,88,-99.99,,,0.10,weatherlink.com 1.10,2013-01-29 22:19:00,
2013-01-29 22:34:00,53.4,50.0,29.54,SW,231,13.0,-999.0,88,-99.99,,,0.12,weatherlink.com 1.10,2013-01-29 22:34:00,
2013-01-29 22:48:00,53.3,50.0,29.53,SW,223,20.0,-999.0,87,-99.99,,,0.13,weatherlink.com 1.10,2013-01-29 22:48:00,
2013-01-29 23:04:00,53.2,50.0,29.53,SW,234,21.0,-999.0,87,-99.99,,,0.16,weatherlink.com 1.10,2013-01-29 23:04:00,
2013-01-29 23:19:00,53.2,50.0,29.53,SSW,213,13.0,-999.0,87,-99.99,,,0.17,weatherlink.com 1.10,2013-01-29 23:19:00,
2013-01-29 23:34:00,53.3,50.0,29.52,SW,234,23.0,-999.0,88,-99.99,,,0.17,weatherlink.com 1.10,2013-01-29 23:34:00,
2013-01-29 23:49:00,53.1,50.0,29.53,West,261,16.0,-999.0,88,-99.99,,,0.19,weatherlink.com 1.10,2013-01-29 23:49:00,